Terug naar catalogus

STARLINK-3541

ActiefCommunicatieVLEO
NORAD 51854·PAYLOAD·🇺🇸 United States

Gelanceerd Mar 3, 2022 vanaf Cape Canaveral Space Force Station

Loading…

Volgende Passages (komende 24 uur)

TLE

VersSource: CelesTrak SupGP

Epoch: Sep 15, 2026, 02:06 UTC

1 51854C 22022C   26258.08798611 -.00019538  00000+0 -83575-3 0  2580
2 51854  53.2153 234.6678 0004350  71.4358 348.8497 15.22304487    10

Volg STARLINK-3541 in realtime met AllMySat

Download on the App Store